[[{"header":{"parameterUnit":"m.s-1","parameterCategory":2,"la1":30.2991,"la2":30.254,"lo1":-89.0895,"lo2":-89.0444,"dy":0.0017,"dx":0.0017,"nx":28,"ny":28,"refTime":"2025-04-04T03:00:00:Z","depth":"0","parameterNumber":2,"parameterNumberName":"U-component_of_CURRENTS"},"data":[0,0,0,0,0,0,0,0,0,0,0,0,0,0,0,0,0,0,0,0,0,0,0,0,0,0,0,0,0,0,0,0,0,0,0,0,0,0,0,0,0,0,0,0,0,0,0,0,0,0,0,0,0,0,0,0,0,0,0.2203,0.2203,0,0.2209,0.2209,0.2209,0.2171,0.217,0.2169,0.2169,0.2164,0.2165,0.2166,0,0,0,0,0,0,0,0,0,0,0,0,0,0.2181,0.2181,0.2203,0.2203,0.2204,0.2209,0.2209,0.2209,0.2171,0.217,0.2169,0.2168,0.2164,0.2165,0.2166,0,0,0,0,0,0,0,0,0,0,0,0,0,0.2186,0.2181,0.2203,0.2188,0.2187,0.221,0.2209,0.2209,0.2171,0.217,0.2169,0.2168,0.2164,0.2165,0.2166,0.2197,0,0,0.2169,0.2169,0,0,0,0,0,0,0,0,0.2186,0.2187,0.219,0.2189,0.2188,0.2191,0.22,0.2205,0.2172,0.2174,0.2169,0.2167,0.2175,0.2175,0.2175,0.2196,0.2196,0.2169,0.217,0.217,0.217,0,0,0,0,0,0,0,0.2186,0.2186,0.2203,0.219,0.2189,0.2188,0.2187,0.2201,0.2179,0.2174,0.2172,0.2178,0.2174,0.2174,0.2175,0.2196,0.2169,0.217,0.217,0.2171,0.2291,0.2293,0,0,0,0,0,0,0.2191,0.2186,0.2203,0.2203,0.2187,0.219,0.2189,0.2189,0.2179,0.2177,0.2179,0.2176,0.2173,0.2174,0.2174,0.2274,0.217,0.2171,0.2171,0.2288,0.2291,0.2294,0,0,0,0,0,0,0.219,0.2192,0.2202,0.2197,0.2199,0.2192,0.2192,0.2189,0.2197,0.2183,0.218,0.219,0.2172,0.2173,0.2211,0.2271,0.2171,0.2172,0.2285,0.2289,0.2293,0.2432,0,0,0,0,0,0,0.2189,0.2192,0.2198,0.2198,0.2199,0.2268,0.2194,0.2191,0.2203,0.22,0.2192,0.219,0.2171,0.221,0.2212,0.227,0.2173,0.2282,0.2287,0.2292,0.2425,0.2441,0.2454,0,0,0,0,0,0.2188,0.2207,0.2198,0.2201,0.2207,0.2272,0.2276,0.2262,0.2205,0.2253,0.2223,0.219,0.2242,0.2213,0.2215,0.2275,0.228,0.2286,0.2291,0.2418,0.2437,0.2454,0,0,0,0,0,0,0.2199,0.2205,0.2195,0.2213,0.2264,0.2268,0.2293,0.2274,0.2284,0.2265,0.2225,0.2225,0.2288,0.2259,0.2228,0.2323,0.2256,0.2262,0.2351,0.2369,0.2384,0.2353,0.2174,0,0,0,0,0,0.2206,0.2218,0.2248,0.2268,0.2293,0.2291,0.2308,0.231,0.2315,0.2316,0.2309,0.2296,0.2314,0.2321,0.2342,0.2388,0.2337,0.2427,0.2442,0.2455,0.2432,0.239,0.2398,0.2313,0.2313,0.2313,0,0,0.2209,0.2219,0.2222,0.2272,0.2291,0.2346,0.2299,0.2348,0.2388,0.2316,0.2363,0.2362,0.2342,0.2406,0.2429,0.2386,0.2468,0.2462,0.2473,0.2442,0.2397,0.2405,0.2412,0.2317,0.2317,0.2316,0,0,0.2252,0.2243,0.2285,0.2331,0.2387,0.2396,0.2417,0.245,0.2465,0.2521,0.2475,0.2498,0.2529,0.2526,0.2521,0.2626,0.2559,0.2644,0.2684,0.2647,0.2653,0.2656,0.2663,0.2666,0.2639,0.2639,0.2639,0,0.2261,0.2303,0.2317,0.2383,0.2411,0.242,0.2483,0.2515,0.2558,0.2566,0.2562,0.2571,0.2582,0.2601,0.2652,0.266,0.2629,0.2621,0.2664,0.2666,0.2668,0.2673,0.2674,0.2647,0.2646,0.2645,0.2644,0,0.2341,0.2382,0.2416,0.2482,0.2531,0.259,0.2637,0.2684,0.2684,0.2695,0.2739,0.274,0.2724,0.2761,0.2744,0.2769,0.2746,0.2698,0.2613,0.2684,0.2687,0.2686,0.2657,0.2655,0.2652,0.2651,0,0,0.2331,0.2447,0.2456,0.2489,0.258,0.2614,0.2701,0.2764,0.2754,0.2827,0.2815,0.289,0.2852,0.2842,0.2824,0.2806,0.2845,0.2764,0.2759,0.2762,0.2788,0.2784,0.2783,0.2793,0.2792,0.2792,0.2806,0,0.2389,0.2503,0.255,0.2635,0.2688,0.2725,0.2779,0.283,0.2852,0.2854,0.2867,0.2862,0.2893,0.2867,0.2869,0.2833,0.2838,0.2847,0.2723,0.272,0.2699,0.2779,0.2696,0.2701,0.2805,0.2804,0.2804,0,0.2442,0.2507,0.2609,0.2671,0.2692,0.2736,0.2762,0.2824,0.285,0.2858,0.2863,0.2848,0.2869,0.2851,0.2849,0.2848,0.2836,0.2813,0.2812,0.2742,0.2712,0.2634,0.2694,0.2649,0.2802,0.2802,0.2802,0,0.2404,0.2525,0.259,0.2623,0.2714,0.2739,0.2775,0.2814,0.2842,0.284,0.283,0.2833,0.2823,0.2808,0.2834,0.2821,0.2805,0.2769,0.2764,0.2765,0.2633,0.2623,0.2613,0.2749,0.2749,0.2749,0.2749,0,0.2432,0.247,0.2563,0.26,0.2625,0.2699,0.2712,0.2745,0.277,0.2765,0.2813,0.2791,0.2804,0.2814,0.2818,0.2815,0.2804,0.278,0.276,0.269,0.2685,0.2586,0.2546,0.2749,0.2749,0.2749,0.2749,0,0.2391,0.2466,0.2523,0.2606,0.2619,0.2634,0.2692,0.2682,0.2732,0.2721,0.2725,0.277,0.2783,0.282,0.2791,0.2798,0.2697,0.2777,0.273,0.2704,0.2636,0.2606,0.241,0.2323,0.2752,0.2752,0.2752,0,0.2383,0.2417,0.2499,0.2502,0.2538,0.257,0.2573,0.2648,0.2645,0.2698,0.2673,0.2717,0.2722,0.275,0.275,0.2766,0.2678,0.2692,0.2647,0.2633,0.2584,0.2461,0.2393,0.2557,0.2555,0.2553,0.2552,0,0.2349,0.2374,0.242,0.2429,0.2435,0.2447,0.2467,0.2468,0.2532,0.2544,0.2541,0.2561,0.263,0.2614,0.2682,0.2674,0.2552,0.2663,0.2627,0.2417,0.2294,0.2202,0.259,0.254,0.2541,0.2542,0.2543,0.2543,0.2287,0.2295,0.2331,0.2325,0.2329,0.2292,0.2263,0.2286,0.2287,0.2284,0.2373,0.2384,0.2484,0.2565,0.2555,0.2518,0.2457,0.2445,0.2414,0.2294,0.2184,0.2583,0.2519,0.252,0.2521,0.2522,0.2523,0,0.2191,0.2206,0.2204,0.2194,0.2142,0.2178,0.2152,0.2107,0.2064,0.2126,0.214,0.2222,0.2265,0.2347,0.2382,0.2297,0.2163,0.2226,0.203,0.1977,0.2323,0.2293,0.22,0.22,0.22,0.2201,0.2201,0.2201,0.2144,0.211,0.2113,0.2,0.1979,0.1878,0.184,0.1804,0.1828,0.1824,0.1871,0.1958,0.2131,0.2233,0.2196,0.2126,0.1933,0.1829,0.1804,0.2082,0.2099,0.2116,0.2081,0.1945,0.1945,0.1374,0.137,0.1367]},{"header":{"parameterUnit":"m.s-1","parameterCategory":2,"la1":30.2991,"la2":30.254,"lo1":-89.0895,"lo2":-89.0444,"dy":0.0017,"dx":0.0017,"nx":28,"ny":28,"refTime":"2025-04-04T03:00:00:Z","depth":"0","parameterNumber":3,"parameterNumberName":"V-component_of_CURRENTS"},"data":[0,0,0,0,0,0,0,0,0,0,0,0,0,0,0,0,0,0,0,0,0,0,0,0,0,0,0,0,0,0,0,0,0,0,0,0,0,0,0,0,0,0,0,0,0,0,0,0,0,0,0,0,0,0,0,0,0,0,0.0068,0.0068,0,0.0062,0.0062,0.0062,0.0055,0.0055,0.0055,0.0055,0.0023,0.0022,0.0021,0,0,0,0,0,0,0,0,0,0,0,0,0,0.0078,0.0078,0.0068,0.0068,0.0068,0.0062,0.0062,0.0062,0.0055,0.0055,0.0055,0.0055,0.0023,0.0022,0.0021,0,0,0,0,0,0,0,0,0,0,0,0,0,0.0073,0.0077,0.0068,0.0063,0.0063,0.0062,0.0062,0.0062,0.0055,0.0055,0.0055,0.0054,0.0023,0.0022,0.0021,0.0019,0,0,0.0018,0.0017,0,0,0,0,0,0,0,0,0.0073,0.0073,0.0064,0.0064,0.0063,0.0059,0.0054,0.0046,0.0055,0.0058,0.0055,0.0054,0.0032,0.003,0.0031,0.0018,0.0016,0.0018,0.0017,0.0017,0.0016,0,0,0,0,0,0,0,0.0074,0.0073,0.0066,0.0064,0.0063,0.0063,0.0062,0.0053,0.0047,0.0058,0.0058,0.0056,0.0032,0.0032,0.003,0.0016,0.0018,0.0017,0.0016,0.0016,-0.0002,-0.0002,0,0,0,0,0,0,0.0074,0.0073,0.0066,0.0066,0.0067,0.0063,0.0062,0.0061,0.0047,0.0045,0.0057,0.0056,0.0034,0.0031,0.0029,0.0043,0.0017,0.0016,0.0015,-0.0002,-0.0002,-0.0002,0,0,0,0,0,0,0.0074,0.0073,0.0067,0.0069,0.0068,0.0063,0.0062,0.0061,0.0062,0.0046,0.0044,0.0059,0.0034,0.003,0.003,0.0041,0.0015,0.0014,-0.0002,-0.0002,-0.0002,0.0061,0,0,0,0,0,0,0.0074,0.0073,0.0074,0.0069,0.0068,0.0082,0.0062,0.0061,0.0062,0.0061,0.0047,0.0044,0.0033,0.0032,0.0029,0.0039,0.0013,-0.0003,-0.0002,-0.0002,0.0058,0.0063,0.0067,0,0,0,0,0,0.0075,0.0081,0.0074,0.0073,0.0069,0.0083,0.0083,0.0078,0.0062,0.0076,0.0061,0.0045,0.0031,0.0032,0.0028,0.0038,-0.0003,-0.0002,-0.0002,0.0056,0.0062,0.0067,0,0,0,0,0,0,0.0087,0.008,0.0073,0.0076,0.0085,0.0082,0.0088,0.0081,0.0079,0.0075,0.0053,0.005,0.0052,0.0034,0.0034,0.0031,0.0009,0.0009,0.0054,0.006,0.0064,0.0085,0.0013,0,0,0,0,0,0.0089,0.009,0.0089,0.0094,0.0097,0.0091,0.0093,0.0094,0.009,0.0089,0.0077,0.006,0.005,0.0047,0.0037,0.0039,0.0012,0.0039,0.0044,0.0048,0.0061,0.0014,0.0015,-0.0001,-0.0001,-0.0001,0,0,0.0093,0.009,0.009,0.0096,0.0097,0.0123,0.0093,0.0105,0.0127,0.0085,0.0104,0.0077,0.0053,0.0059,0.0057,0.0046,0.004,0.0048,0.0052,0.0064,0.0014,0.0016,0.0017,-0.0,-0.0,-0.0,0,0,0.0118,0.0102,0.012,0.0133,0.0142,0.0143,0.0149,0.0151,0.0151,0.0161,0.0134,0.0117,0.0103,0.0093,0.0083,0.0102,0.0064,0.0091,0.0134,0.0088,0.0089,0.009,0.007,0.0069,0.0095,0.0095,0.0095,0,0.0126,0.0151,0.013,0.0161,0.0181,0.0157,0.0198,0.0196,0.0199,0.0201,0.0177,0.0143,0.0121,0.0123,0.0132,0.0114,0.0087,0.012,0.0094,0.0094,0.0094,0.0074,0.0071,0.0098,0.0097,0.0097,0.0097,0,0.0176,0.02,0.0213,0.0244,0.026,0.0291,0.0292,0.03,0.0283,0.0274,0.0262,0.0221,0.0201,0.0185,0.0168,0.0158,0.0141,0.0105,0.0085,0.0099,0.0077,0.0073,0.0102,0.0101,0.01,0.0099,0,0,0.0194,0.0241,0.0248,0.0283,0.0312,0.0332,0.0363,0.0386,0.0395,0.0368,0.0372,0.0339,0.0296,0.0281,0.0241,0.0203,0.0179,0.0161,0.0157,0.015,0.0094,0.0094,0.0089,0.0132,0.0132,0.0131,0.0085,0,0.0248,0.0324,0.0332,0.0409,0.0452,0.0448,0.0478,0.0487,0.0469,0.0462,0.0402,0.0385,0.0338,0.0318,0.0275,0.0201,0.017,0.0197,0.0075,0.0072,0.0075,0.0085,0.0125,0.0088,0.0081,0.008,0.008,0,0.0303,0.035,0.0436,0.0498,0.0514,0.0549,0.0583,0.0609,0.0588,0.0564,0.0525,0.0473,0.0428,0.0367,0.0259,0.0276,0.0201,0.0136,0.0132,0.0109,0.0064,0.0068,0.0081,-0.0002,0.0073,0.0074,0.0074,0,0.0341,0.0422,0.0493,0.0519,0.0581,0.0609,0.0635,0.0638,0.0661,0.0623,0.0615,0.0541,0.0501,0.0394,0.0276,0.0261,0.0146,0.0103,0.0037,0.0036,0.0038,0.0039,-0.0037,0.0026,0.0026,0.0026,0.0026,0,0.0403,0.0463,0.0513,0.0557,0.0633,0.0652,0.0714,0.0715,0.0719,0.0743,0.0667,0.0657,0.0501,0.042,0.0301,0.017,0.0164,0.0056,0.0022,0.0062,0.0066,-0.0034,-0.0085,0.0024,0.0024,0.0025,0.0025,0,0.0449,0.0482,0.0569,0.0636,0.0658,0.0711,0.0781,0.0811,0.0803,0.0827,0.082,0.0745,0.0641,0.0496,0.0323,0.0212,0.0024,0.0031,0.0106,0.0082,-0.0059,-0.0107,-0.0234,-0.0306,-0.0048,-0.0048,-0.0049,0,0.0485,0.0535,0.0622,0.0665,0.0701,0.0776,0.0821,0.0849,0.088,0.0885,0.0893,0.0817,0.0772,0.0538,0.0335,0.0143,0.0024,0.0036,0.0011,-0.0049,-0.0128,-0.0182,-0.0238,0.0042,0.0042,0.0043,0.0043,0,0.0556,0.0578,0.064,0.0721,0.0779,0.0858,0.092,0.0965,0.0988,0.1013,0.1021,0.0996,0.08,0.0633,0.0374,0.0225,-0.002,0.0038,-0.0055,-0.0081,-0.0114,-0.0204,0.007,0.0047,0.0047,0.0046,0.0046,0.0046,0.0594,0.0644,0.0698,0.0778,0.0841,0.0908,0.0968,0.1031,0.1099,0.114,0.1124,0.1121,0.091,0.0575,0.0358,0.0033,-0.0006,-0.0064,-0.012,-0.0171,-0.0232,0.0067,0.002,0.0019,0.0019,0.0019,0.0018,0,0.0633,0.0677,0.0747,0.0826,0.088,0.0912,0.1006,0.1059,0.1137,0.1217,0.1245,0.1196,0.0921,0.0615,0.0202,-0.0055,-0.0192,-0.0203,-0.0266,-0.0322,-0.0072,-0.0059,-0.0087,-0.0087,-0.0087,-0.0087,-0.0087,-0.0087,0.0652,0.0713,0.0745,0.0827,0.0878,0.0946,0.0998,0.1088,0.1171,0.1278,0.1337,0.1373,0.1222,0.0479,-0.0045,-0.0191,-0.0398,-0.0434,-0.057,-0.0373,-0.0364,-0.0356,-0.0355,-0.0445,-0.0446,-0.0789,-0.0792,-0.0794]}],[{"header":{"parameterUnit":"m.s-1","parameterCategory":2,"la1":30.2991,"la2":30.254,"lo1":-89.0895,"lo2":-89.0444,"dy":0.0017,"dx":0.0017,"nx":28,"ny":28,"refTime":"2025-04-04T03:00:00:Z","depth":"2","parameterNumber":2,"parameterNumberName":"U-component_of_CURRENTS"},"data":[0,0,0,0,0,0,0,0,0,0,0,0,0,0,0,0,0,0,0,0,0,0,0,0,0,0,0,0,0,0,0,0,0,0,0,0,0,0,0,0,0,0,0,0,0,0,0,0,0,0,0,0,0,0,0,0,0,0,0.2193,0.2193,0,0.2201,0.2201,0.2201,0.2173,0.2172,0.2172,0.2171,0.2178,0.2178,0.2179,0,0,0,0,0,0,0,0,0,0,0,0,0,0.2175,0.2175,0.2193,0.2193,0.2193,0.2201,0.2201,0.2201,0.2173,0.2172,0.2172,0.2171,0.2178,0.2178,0.2179,0,0,0,0,0,0,0,0,0,0,0,0,0,0.218,0.2175,0.2193,0.2183,0.2182,0.2201,0.2201,0.2201,0.2173,0.2172,0.2172,0.2171,0.2177,0.2178,0.2179,0.2202,0,0,0.2183,0.2183,0,0,0,0,0,0,0,0,0.218,0.2181,0.2184,0.2184,0.2183,0.2188,0.2197,0.2202,0.2173,0.2173,0.2171,0.217,0.2184,0.2184,0.2183,0.2203,0.2203,0.2183,0.2183,0.2184,0.2184,0,0,0,0,0,0,0,0.218,0.218,0.2193,0.2184,0.2184,0.2186,0.2185,0.2198,0.2181,0.2173,0.2172,0.2178,0.2183,0.2182,0.2183,0.2203,0.2183,0.2183,0.2184,0.2185,0.2298,0.2301,0,0,0,0,0,0,0.2185,0.218,0.2193,0.2193,0.2183,0.2187,0.2186,0.2185,0.2181,0.218,0.2179,0.2177,0.2181,0.2182,0.2183,0.2258,0.2184,0.2185,0.2185,0.2296,0.2299,0.2302,0,0,0,0,0,0,0.2184,0.2185,0.2192,0.219,0.2191,0.2189,0.2187,0.2185,0.219,0.2185,0.2184,0.2186,0.218,0.2182,0.2213,0.2256,0.2185,0.2186,0.2293,0.2297,0.23,0.2377,0,0,0,0,0,0,0.2183,0.2185,0.2191,0.219,0.2192,0.2199,0.2188,0.2186,0.2196,0.2193,0.2191,0.219,0.218,0.2212,0.2214,0.2256,0.2187,0.229,0.2295,0.2299,0.2371,0.2383,0.2392,0,0,0,0,0,0.2183,0.2194,0.219,0.2193,0.2197,0.2199,0.22,0.2194,0.2197,0.2195,0.2212,0.219,0.2242,0.2214,0.2217,0.226,0.2288,0.2294,0.2299,0.2366,0.238,0.2392,0,0,0,0,0,0,0.2189,0.2193,0.2189,0.22,0.2198,0.2196,0.2203,0.2203,0.2215,0.2229,0.2216,0.2217,0.2258,0.2254,0.2224,0.2309,0.2264,0.227,0.2315,0.2328,0.2338,0.2303,0.2188,0,0,0,0,0,0.2195,0.2201,0.2201,0.2209,0.2211,0.2211,0.2216,0.222,0.223,0.2233,0.224,0.226,0.2283,0.23,0.2311,0.2359,0.2335,0.2392,0.2403,0.2412,0.2387,0.2396,0.2404,0.2319,0.2319,0.2319,0,0,0.2198,0.2203,0.2206,0.2211,0.2211,0.223,0.221,0.223,0.226,0.2236,0.2284,0.229,0.2302,0.2351,0.2372,0.2355,0.2431,0.2418,0.2426,0.2395,0.2402,0.241,0.2417,0.2323,0.2322,0.2322,0,0,0.2218,0.2214,0.2232,0.2237,0.2254,0.2255,0.2264,0.2279,0.2294,0.2341,0.2339,0.2362,0.2407,0.2415,0.2428,0.2504,0.2478,0.2532,0.2565,0.2576,0.2582,0.2587,0.2592,0.2596,0.2547,0.2547,0.2548,0,0.2226,0.224,0.2236,0.2261,0.2271,0.227,0.2295,0.2319,0.2348,0.2365,0.2367,0.2431,0.243,0.2486,0.251,0.2523,0.2527,0.2515,0.2587,0.2591,0.2594,0.2598,0.2602,0.2552,0.2551,0.2551,0.255,0,0.2259,0.2275,0.2286,0.2313,0.2328,0.2344,0.2375,0.2407,0.2432,0.2445,0.2502,0.2517,0.2546,0.2568,0.2558,0.2605,0.2599,0.2589,0.2546,0.2607,0.2608,0.261,0.2558,0.2556,0.2555,0.2554,0,0,0.2262,0.2299,0.2305,0.2321,0.2354,0.2369,0.243,0.2461,0.2498,0.2542,0.2576,0.2624,0.2623,0.2636,0.2648,0.2654,0.2685,0.2638,0.2636,0.2627,0.2716,0.2701,0.2702,0.2699,0.2699,0.27,0.2715,0,0.2282,0.2332,0.2347,0.2391,0.2413,0.2434,0.2483,0.2526,0.2559,0.2595,0.2621,0.2655,0.2661,0.2681,0.2697,0.2671,0.2692,0.2681,0.2669,0.2668,0.2635,0.2704,0.2473,0.2466,0.2717,0.2717,0.2717,0,0.2306,0.2337,0.238,0.2425,0.2437,0.2471,0.2531,0.2582,0.2633,0.2658,0.2702,0.2707,0.2733,0.2721,0.274,0.2741,0.2733,0.2714,0.2715,0.2663,0.2657,0.2443,0.2461,0.2721,0.2721,0.272,0.272,0,0.2306,0.2356,0.2385,0.24,0.2458,0.2492,0.2536,0.26,0.2637,0.2695,0.2706,0.2753,0.2766,0.2774,0.276,0.2752,0.2759,0.2744,0.2731,0.273,0.2506,0.2485,0.2753,0.2753,0.2753,0.2753,0.2753,0,0.2305,0.2331,0.2388,0.2408,0.2444,0.2508,0.2554,0.2609,0.2674,0.2686,0.2742,0.2754,0.2775,0.2785,0.2775,0.2771,0.2789,0.2733,0.2734,0.2533,0.2515,0.2702,0.2696,0.2753,0.2753,0.2753,0.2753,0,0.2276,0.2316,0.2353,0.2424,0.2441,0.2479,0.2547,0.258,0.2662,0.2681,0.2694,0.275,0.2765,0.2795,0.2788,0.2784,0.2776,0.2773,0.2539,0.2513,0.2731,0.2729,0.2744,0.2744,0.2744,0.2743,0.2743,0,0.2256,0.2274,0.2344,0.2358,0.2381,0.2435,0.246,0.2557,0.2583,0.2659,0.2653,0.27,0.2702,0.2738,0.2715,0.2723,0.2778,0.2527,0.2463,0.2731,0.2731,0.273,0.2728,0.22,0.2195,0.2192,0.2189,0,0.2214,0.2245,0.2269,0.2299,0.2326,0.2334,0.2387,0.24,0.249,0.2514,0.253,0.2547,0.2593,0.2493,0.2546,0.2517,0.2509,0.2453,0.2776,0.2259,0.2225,0.2224,0.2238,0.2155,0.2158,0.2161,0.2162,0.2164,0.2174,0.2172,0.2215,0.2211,0.2236,0.2223,0.22,0.224,0.2255,0.2255,0.2343,0.2304,0.233,0.2286,0.2222,0.2182,0.2362,0.2246,0.2254,0.2267,0.2223,0.2192,0.2106,0.2109,0.2111,0.2114,0.2116,0,0.211,0.2117,0.2125,0.2126,0.2089,0.2136,0.2126,0.2075,0.2031,0.2063,0.2063,0.19,0.1854,0.1893,0.1778,0.1805,0.1746,0.173,0.1615,0.1652,0.1685,0.1606,0.1328,0.1325,0.1323,0.1321,0,0,0.2091,0.2062,0.2046,0.1965,0.1958,0.1876,0.1839,0.1785,0.1777,0.1703,0.1667,0.177,0.1846,0.1557,0.153,0.1404,0.1511,0.1348,0.1984,0.1887,0.1915,0.1995,0.192,0,0,0,0,0]},{"header":{"parameterUnit":"m.s-1","parameterCategory":2,"la1":30.2991,"la2":30.254,"lo1":-89.0895,"lo2":-89.0444,"dy":0.0017,"dx":0.0017,"nx":28,"ny":28,"refTime":"2025-04-04T03:00:00:Z","depth":"2","parameterNumber":3,"parameterNumberName":"V-component_of_CURRENTS"},"data":[0,0,0,0,0,0,0,0,0,0,0,0,0,0,0,0,0,0,0,0,0,0,0,0,0,0,0,0,0,0,0,0,0,0,0,0,0,0,0,0,0,0,0,0,0,0,0,0,0,0,0,0,0,0,0,0,0,0,0.0032,0.0032,0,0.0026,0.0026,0.0026,0.002,0.002,0.002,0.002,-0.0009,-0.001,-0.001,0,0,0,0,0,0,0,0,0,0,0,0,0,0.0042,0.0042,0.0032,0.0032,0.0032,0.0026,0.0026,0.0026,0.002,0.002,0.002,0.002,-0.0009,-0.001,-0.001,0,0,0,0,0,0,0,0,0,0,0,0,0,0.0038,0.0042,0.0032,0.0028,0.0028,0.0026,0.0026,0.0026,0.002,0.002,0.002,0.002,-0.0009,-0.001,-0.0011,-0.0013,0,0,-0.0014,-0.0014,0,0,0,0,0,0,0,0,0.0038,0.0038,0.0029,0.0028,0.0028,0.0023,0.0019,0.0012,0.002,0.0024,0.002,0.002,-0.0001,-0.0002,-0.0002,-0.0014,-0.0016,-0.0014,-0.0014,-0.0015,-0.0015,0,0,0,0,0,0,0,0.0038,0.0038,0.003,0.0029,0.0028,0.0028,0.0027,0.0018,0.0013,0.0023,0.0023,0.0021,-0.0001,-0.0001,-0.0003,-0.0016,-0.0014,-0.0015,-0.0015,-0.0016,-0.003,-0.003,0,0,0,0,0,0,0.0038,0.0038,0.0031,0.003,0.0032,0.0028,0.0027,0.0025,0.0013,0.0011,0.0022,0.0021,0.0001,-0.0002,-0.0004,0.0006,-0.0015,-0.0016,-0.0016,-0.0031,-0.003,-0.003,0,0,0,0,0,0,0.0038,0.0038,0.0031,0.0034,0.0033,0.0028,0.0026,0.0025,0.0025,0.0012,0.001,0.0022,0.0001,-0.0002,-0.0003,0.0004,-0.0016,-0.0017,-0.0031,-0.003,-0.003,0.0016,0,0,0,0,0,0,0.0039,0.0038,0.0038,0.0034,0.0032,0.0032,0.0026,0.0025,0.0025,0.0024,0.0012,0.0009,0.0,-0.0001,-0.0004,0.0002,-0.0018,-0.0031,-0.0031,-0.003,0.0014,0.0018,0.0021,0,0,0,0,0,0.0039,0.0044,0.0038,0.0037,0.0033,0.0032,0.0032,0.0028,0.0025,0.0027,0.0024,0.0009,-0.0001,-0.0001,-0.0004,0.0001,-0.0031,-0.0031,-0.003,0.0013,0.0017,0.0021,0,0,0,0,0,0,0.0051,0.0044,0.0037,0.004,0.0036,0.0031,0.0033,0.0029,0.0029,0.0028,0.0016,0.0014,0.0014,0.0,0.0,-0.0003,-0.0021,-0.0021,0.0013,0.0017,0.0021,0.0033,-0.0019,0,0,0,0,0,0.0052,0.0053,0.0045,0.0047,0.0045,0.0038,0.0038,0.0034,0.0032,0.0032,0.0023,0.0015,0.0013,0.001,0.0002,0.0003,-0.0018,0.0002,0.0005,0.0008,0.0016,-0.0014,-0.0013,-0.0029,-0.0029,-0.0029,0,0,0.0056,0.0053,0.0053,0.0049,0.0045,0.006,0.0038,0.0038,0.0054,0.0028,0.0042,0.0025,0.0016,0.0019,0.0017,0.001,0.0002,0.0009,0.0012,0.0018,-0.0013,-0.0012,-0.001,-0.0028,-0.0028,-0.0028,0,0,0.0072,0.0062,0.007,0.0073,0.0069,0.007,0.0071,0.0064,0.0063,0.0069,0.0058,0.0048,0.0041,0.0038,0.0037,0.0052,0.002,0.0043,0.0073,0.0044,0.0045,0.0046,0.0025,0.0023,0.0046,0.0046,0.0046,0,0.008,0.0092,0.0073,0.0089,0.0101,0.0079,0.0102,0.01,0.0096,0.0099,0.0078,0.0072,0.0053,0.0072,0.0073,0.006,0.0039,0.0061,0.0049,0.0049,0.0049,0.0027,0.0025,0.0048,0.0048,0.0048,0.0047,0,0.0109,0.0122,0.0128,0.0145,0.0153,0.0166,0.0164,0.0167,0.0157,0.0152,0.0152,0.0124,0.0124,0.0108,0.0095,0.0093,0.0076,0.0056,0.0041,0.0054,0.003,0.0026,0.0051,0.0051,0.005,0.0049,0,0,0.0132,0.0146,0.0153,0.0175,0.0186,0.0201,0.0222,0.0237,0.0262,0.0229,0.0251,0.0224,0.0198,0.0194,0.0168,0.0135,0.0108,0.0096,0.0093,0.008,0.0047,0.0044,0.004,0.0082,0.0082,0.0081,0.0032,0,0.0167,0.0211,0.0208,0.0262,0.029,0.0283,0.0316,0.0324,0.0316,0.0327,0.0281,0.0288,0.0236,0.0236,0.0195,0.0131,0.0101,0.0123,0.0033,0.0031,0.003,0.0037,0.005,0.0007,0.0028,0.0028,0.0027,0,0.0208,0.0236,0.0288,0.0337,0.0349,0.0379,0.0427,0.0452,0.0453,0.0441,0.0423,0.0387,0.0348,0.0293,0.0194,0.021,0.0136,0.0076,0.0072,0.0052,0.0022,-0.0004,0.0,0.0022,0.0022,0.0022,0.0023,0,0.0254,0.0298,0.0344,0.0361,0.0407,0.0434,0.0466,0.0488,0.0521,0.0514,0.0519,0.0468,0.0442,0.0342,0.0216,0.0203,0.0095,0.0064,-0.0004,-0.0005,-0.0018,-0.002,-0.0005,-0.0005,-0.0005,-0.0005,-0.0005,0,0.0302,0.0344,0.0371,0.0403,0.0473,0.049,0.056,0.0578,0.0611,0.065,0.0586,0.0593,0.0447,0.0368,0.0246,0.0118,0.0121,0.0007,-0.0017,-0.0002,-0.0001,-0.001,-0.001,-0.0007,-0.0006,-0.0006,-0.0006,0,0.0344,0.0359,0.042,0.0473,0.0495,0.0549,0.0623,0.0676,0.0693,0.0738,0.0738,0.0683,0.0581,0.044,0.0277,0.0167,0.0039,-0.0007,0.0026,0.0007,-0.005,-0.0047,-0.0087,-0.0087,-0.0087,-0.0088,-0.0088,0,0.0368,0.04,0.0469,0.0512,0.0536,0.0609,0.0668,0.0713,0.0766,0.0793,0.0818,0.0746,0.0703,0.0478,0.0277,0.0087,0.0052,-0.0035,-0.006,-0.0039,-0.0058,-0.0055,-0.0051,-0.0063,-0.0063,-0.0063,-0.0063,0,0.0419,0.0438,0.0484,0.0569,0.0631,0.07,0.078,0.0832,0.0883,0.0917,0.0944,0.0917,0.0722,0.0532,0.0277,0.0142,-0.0005,-0.0042,-0.0032,-0.0038,-0.0019,-0.0037,-0.0034,-0.0063,-0.0063,-0.0063,-0.0063,-0.0063,0.0458,0.0495,0.0558,0.0626,0.0697,0.078,0.0836,0.091,0.099,0.1029,0.1019,0.0965,0.0779,0.0447,0.0237,0.0003,0.0013,-0.0089,-0.0088,-0.0087,-0.007,-0.0051,-0.0098,-0.0099,-0.0099,-0.0099,-0.0099,0,0.0514,0.0551,0.062,0.0701,0.0763,0.0801,0.0905,0.0939,0.1013,0.105,0.1062,0.0863,0.0686,0.0464,0.0129,-0.0059,-0.0081,-0.0133,-0.0118,-0.0115,-0.0114,-0.0097,-0.0134,-0.0135,-0.0136,-0.0136,0,0,0.0551,0.0612,0.0629,0.0728,0.0786,0.0858,0.0908,0.0956,0.099,0.0999,0.0976,0.0961,0.0727,0.0476,0.0233,0.0043,-0.0003,-0.0002,0.0047,0.0096,0.0099,-0.0066,-0.0035,0,0,0,0,0]}],[{"header":{"parameterUnit":"m.s-1","parameterCategory":2,"la1":30.2991,"la2":30.254,"lo1":-89.0895,"lo2":-89.0444,"dy":0.0017,"dx":0.0017,"nx":28,"ny":28,"refTime":"2025-04-04T03:00:00:Z","depth":"4","parameterNumber":2,"parameterNumberName":"U-component_of_CURRENTS"},"data":[0,0,0,0,0,0,0,0,0,0,0,0,0,0,0,0,0,0,0,0,0,0,0,0,0,0,0,0,0,0,0,0,0,0,0,0,0,0,0,0,0,0,0,0,0,0,0,0,0,0,0,0,0,0,0,0,0,0,0.1394,0.1394,0,0.1432,0.1432,0.1433,0.1473,0.1474,0.1475,0.1475,0.1559,0.1561,0.1562,0,0,0,0,0,0,0,0,0,0,0,0,0,0.1381,0.1381,0.1394,0.1394,0.1395,0.1432,0.1432,0.1433,0.1473,0.1474,0.1475,0.1475,0.1558,0.156,0.1562,0,0,0,0,0,0,0,0,0,0,0,0,0,0.1399,0.1381,0.1394,0.142,0.1423,0.1432,0.1432,0.1433,0.1473,0.1474,0.1475,0.1476,0.1558,0.156,0.1563,0.1558,0,0,0.157,0.1571,0,0,0,0,0,0,0,0,0.1398,0.1399,0.1416,0.1418,0.1422,0.145,0.1459,0.1477,0.1473,0.1453,0.1475,0.1476,0.1526,0.1532,0.1535,0.1562,0.1566,0.157,0.1572,0.1573,0.1574,0,0,0,0,0,0,0,0.1396,0.1398,0.1408,0.1416,0.142,0.1439,0.1442,0.1462,0.1484,0.1455,0.1458,0.1463,0.1528,0.1532,0.1537,0.1567,0.157,0.1572,0.1574,0.1575,0.1696,0.1698,0,0,0,0,0,0,0.1391,0.1396,0.1407,0.1409,0.1413,0.1438,0.1442,0.1439,0.1483,0.1491,0.1462,0.1465,0.1528,0.1534,0.154,0.162,0.1573,0.1575,0.1577,0.1695,0.1697,0.1699,0,0,0,0,0,0,0.139,0.1391,0.1405,0.1405,0.1408,0.1437,0.1434,0.1439,0.1471,0.1488,0.1497,0.1493,0.1529,0.1537,0.1588,0.1621,0.1576,0.1578,0.1693,0.1695,0.1698,0.1727,0,0,0,0,0,0,0.139,0.139,0.1403,0.1404,0.1408,0.142,0.1433,0.1439,0.1472,0.1476,0.1516,0.1523,0.153,0.1584,0.159,0.1623,0.158,0.169,0.1694,0.1697,0.1724,0.1731,0.1736,0,0,0,0,0,0.1389,0.1392,0.1402,0.1405,0.1418,0.1421,0.1425,0.1448,0.1473,0.1482,0.1523,0.1524,0.161,0.1587,0.1594,0.1629,0.1689,0.1693,0.1697,0.1721,0.1729,0.1736,0,0,0,0,0,0,0.1398,0.1397,0.1408,0.1414,0.1424,0.1428,0.1444,0.1463,0.1501,0.1519,0.1541,0.1551,0.1607,0.1616,0.1591,0.1676,0.1652,0.1657,0.1668,0.1676,0.1682,0.1689,0.1582,0,0,0,0,0,0.1403,0.1407,0.1409,0.1419,0.1422,0.144,0.1453,0.1468,0.1494,0.1513,0.1543,0.1584,0.1623,0.1649,0.1675,0.1719,0.1727,0.1749,0.1755,0.176,0.1772,0.1817,0.1828,0.1712,0.1712,0.1712,0,0,0.1415,0.1413,0.142,0.1423,0.1433,0.1443,0.1451,0.1471,0.1498,0.1516,0.1573,0.1604,0.1639,0.1689,0.1716,0.1705,0.1795,0.1765,0.1769,0.1779,0.1823,0.1834,0.1844,0.1714,0.1714,0.1714,0,0,0.1419,0.1432,0.143,0.1438,0.1453,0.1463,0.1475,0.1494,0.1523,0.1569,0.16,0.1655,0.1703,0.1741,0.1765,0.1823,0.1823,0.1836,0.1876,0.1919,0.1929,0.1938,0.1946,0.1955,0.1842,0.1842,0.1842,0,0.1437,0.1431,0.1434,0.1433,0.1452,0.1476,0.1489,0.1514,0.1557,0.1591,0.1594,0.1704,0.1729,0.1809,0.1832,0.1837,0.1851,0.1841,0.1926,0.1935,0.1943,0.195,0.196,0.1844,0.1844,0.1843,0.1843,0,0.1426,0.144,0.1441,0.1451,0.1471,0.1487,0.1516,0.1555,0.1597,0.1628,0.1715,0.1757,0.1827,0.1844,0.1857,0.1941,0.1926,0.1923,0.1902,0.1957,0.196,0.197,0.1847,0.1846,0.1845,0.1845,0,0,0.1424,0.1432,0.1438,0.1452,0.1487,0.1499,0.1553,0.1604,0.1657,0.1708,0.1782,0.1856,0.1892,0.1924,0.1956,0.1998,0.206,0.1992,0.1993,0.1991,0.2139,0.1995,0.1991,0.2074,0.2076,0.2078,0.211,0,0.1422,0.1423,0.1438,0.1473,0.148,0.153,0.1579,0.1638,0.1695,0.1769,0.1837,0.1914,0.1919,0.1969,0.2014,0.2056,0.209,0.205,0.2095,0.2096,0.1955,0.2,0.2085,0.2117,0.212,0.2121,0.2122,0,0.1404,0.141,0.1432,0.1485,0.1496,0.1533,0.1628,0.1675,0.1779,0.1828,0.1919,0.1971,0.2067,0.2054,0.2149,0.2126,0.2141,0.2156,0.2158,0.2023,0.1971,0.2058,0.214,0.2138,0.2137,0.2136,0.2135,0,0.138,0.1414,0.1436,0.1451,0.1508,0.1554,0.1606,0.1703,0.1756,0.1883,0.1937,0.2045,0.2116,0.2161,0.2202,0.2188,0.2281,0.2259,0.2139,0.2128,0.2233,0.2223,0.2319,0.2319,0.2319,0.2319,0.2319,0,0.1353,0.1378,0.1432,0.1438,0.1496,0.1551,0.1629,0.1699,0.1804,0.1866,0.1975,0.2037,0.2151,0.2213,0.2228,0.2208,0.2302,0.2151,0.2134,0.2242,0.2233,0.2238,0.2228,0.232,0.232,0.2319,0.2319,0,0.1308,0.1341,0.1371,0.1442,0.1477,0.1522,0.1629,0.168,0.179,0.1878,0.1926,0.206,0.2131,0.2205,0.2283,0.2226,0.2229,0.2198,0.2301,0.2288,0.2036,0.2028,0.2055,0.2051,0.2047,0.2043,0.2041,0,0.1276,0.1282,0.1363,0.1397,0.1434,0.151,0.156,0.1668,0.1715,0.1866,0.1896,0.2019,0.2089,0.2075,0.2165,0.2176,0.2156,0.2135,0.2089,0.2032,0.2013,0.2011,0.2008,0.2034,0.2033,0.2032,0.2031,0,0.1219,0.126,0.1288,0.1351,0.1409,0.1455,0.1534,0.1551,0.1667,0.1781,0.1819,0.1859,0.1933,0.1984,0.2014,0.2019,0.2136,0.2094,0.2101,0.2058,0.2007,0.1992,0.1994,0.2018,0.202,0.2021,0.2022,0,0.1193,0.1201,0.125,0.1297,0.1365,0.1379,0.1424,0.1466,0.1516,0.1664,0.1672,0.1793,0.1908,0.1903,0.1929,0.1925,0.1893,0.1826,0.1847,0.1863,0.1787,0.1694,0.1599,0,0,0,0,0,0.1161,0.116,0.1195,0.1227,0.1287,0.1321,0.1399,0.1441,0.1542,0.1522,0.1586,0.1639,0.1677,0.1745,0.1703,0.1854,0.191,0.1798,0.1846,0.1942,0.1958,0.1887,0,0,0,0,0,0,0.1139,0.1169,0.1165,0.1161,0.1171,0.1214,0.1254,0.1321,0.1309,0.1422,0.1453,0.154,0.1608,0.1685,0.1674,0.1693,0.1688,0.1872,0.1867,0.1933,0.1948,0.196,0.1893,0,0,0,0,0]},{"header":{"parameterUnit":"m.s-1","parameterCategory":2,"la1":30.2991,"la2":30.254,"lo1":-89.0895,"lo2":-89.0444,"dy":0.0017,"dx":0.0017,"nx":28,"ny":28,"refTime":"2025-04-04T03:00:00:Z","depth":"4","parameterNumber":3,"parameterNumberName":"V-component_of_CURRENTS"},"data":[0,0,0,0,0,0,0,0,0,0,0,0,0,0,0,0,0,0,0,0,0,0,0,0,0,0,0,0,0,0,0,0,0,0,0,0,0,0,0,0,0,0,0,0,0,0,0,0,0,0,0,0,0,0,0,0,0,0,0.0046,0.0046,0,0.0046,0.0046,0.0046,0.0033,0.0033,0.0032,0.0032,0.0007,0.0006,0.0006,0,0,0,0,0,0,0,0,0,0,0,0,0,0.0038,0.0039,0.0046,0.0046,0.0046,0.0046,0.0046,0.0046,0.0033,0.0033,0.0032,0.0032,0.0007,0.0006,0.0006,0,0,0,0,0,0,0,0,0,0,0,0,0,0.0041,0.0039,0.0046,0.0039,0.0038,0.0046,0.0046,0.0046,0.0033,0.0033,0.0032,0.0032,0.0007,0.0006,0.0006,0.0015,0,0,0.0005,0.0004,0,0,0,0,0,0,0,0,0.0041,0.0041,0.004,0.0039,0.0039,0.0039,0.0035,0.0035,0.0033,0.0036,0.0032,0.0031,0.0015,0.0014,0.0016,0.0014,0.0013,0.0005,0.0004,0.0004,0.0004,0,0,0,0,0,0,0,0.0041,0.0041,0.0046,0.004,0.0039,0.0037,0.0037,0.0035,0.0029,0.0035,0.0034,0.0034,0.0015,0.0017,0.0016,0.0013,0.0005,0.0004,0.0004,0.0004,0.0015,0.0015,0,0,0,0,0,0,0.004,0.0041,0.0046,0.0046,0.0038,0.0038,0.0038,0.004,0.0029,0.0027,0.0034,0.0033,0.0018,0.0016,0.0015,0.0032,0.0004,0.0004,0.0004,0.0014,0.0015,0.0016,0,0,0,0,0,0,0.004,0.0041,0.0046,0.0043,0.0044,0.0039,0.0041,0.004,0.004,0.0029,0.0026,0.0035,0.0017,0.0015,0.002,0.0031,0.0004,0.0003,0.0014,0.0015,0.0015,0.0063,0,0,0,0,0,0,0.004,0.0041,0.0043,0.0043,0.0044,0.0057,0.0041,0.004,0.0041,0.0039,0.0029,0.0026,0.0017,0.0021,0.002,0.003,0.0003,0.0013,0.0014,0.0015,0.0061,0.0065,0.0069,0,0,0,0,0,0.004,0.0049,0.0043,0.0044,0.0047,0.0058,0.0058,0.0053,0.0041,0.0049,0.0043,0.0026,0.0027,0.0022,0.002,0.003,0.0012,0.0014,0.0015,0.0059,0.0064,0.0069,0,0,0,0,0,0,0.0048,0.0048,0.0042,0.0051,0.0055,0.0055,0.0061,0.0055,0.0056,0.0053,0.0038,0.0035,0.0042,0.003,0.0025,0.0036,0.0015,0.0016,0.0049,0.0054,0.0058,0.0058,0.0002,0,0,0,0,0,0.005,0.0056,0.0057,0.0063,0.0066,0.0063,0.0065,0.0063,0.0063,0.0063,0.0056,0.0049,0.0047,0.0046,0.0043,0.0052,0.0024,0.0055,0.0059,0.0063,0.0062,0.0027,0.0028,0.002,0.002,0.002,0,0,0.0054,0.0055,0.0058,0.0065,0.0067,0.0085,0.0063,0.0072,0.0087,0.006,0.0077,0.0065,0.0053,0.0064,0.0066,0.0055,0.0053,0.0065,0.0068,0.0065,0.0029,0.0029,0.003,0.0021,0.0021,0.002,0,0,0.0072,0.0067,0.0081,0.0091,0.0097,0.0099,0.0102,0.0106,0.0106,0.0121,0.0104,0.0098,0.0101,0.0092,0.0088,0.0113,0.0077,0.0112,0.0135,0.0102,0.0102,0.0102,0.0076,0.0074,0.0114,0.0115,0.0115,0,0.0077,0.0095,0.0088,0.0109,0.0119,0.0108,0.0131,0.0136,0.0142,0.0142,0.0133,0.0126,0.0114,0.0119,0.0128,0.0123,0.0099,0.0118,0.0107,0.0106,0.0105,0.0079,0.0075,0.0117,0.0117,0.0117,0.0116,0,0.011,0.0126,0.0137,0.0159,0.0171,0.0188,0.0195,0.0203,0.0198,0.0196,0.0197,0.018,0.0171,0.0168,0.0157,0.0148,0.0133,0.0116,0.0093,0.0109,0.008,0.0075,0.0121,0.012,0.0119,0.0118,0,0,0.0119,0.0152,0.0157,0.0177,0.0198,0.0212,0.0237,0.0251,0.0262,0.0256,0.0263,0.0252,0.0228,0.0221,0.0201,0.0172,0.0147,0.0145,0.0142,0.0119,0.0077,0.0074,0.0068,0.0127,0.0126,0.0125,0.0064,0,0.0147,0.0193,0.0202,0.0249,0.0273,0.0275,0.0301,0.0311,0.0309,0.0315,0.0283,0.0284,0.0254,0.0249,0.0216,0.0166,0.0135,0.0166,0.0066,0.0063,0.0058,0.0063,0.0123,0.006,0.0058,0.0058,0.0057,0,0.018,0.0206,0.0253,0.0294,0.0304,0.0331,0.0358,0.038,0.0381,0.0376,0.0359,0.0335,0.0303,0.0271,0.0185,0.0206,0.0146,0.01,0.0096,0.0071,0.0051,0.0038,0.0047,0.0048,0.0049,0.005,0.005,0,0.0194,0.0243,0.028,0.0296,0.034,0.0359,0.0381,0.0395,0.0415,0.0412,0.0414,0.0371,0.0353,0.0271,0.0183,0.018,0.0081,0.0063,0.0002,0.0002,0.0001,0.0002,-0.0008,-0.0007,-0.0007,-0.0007,-0.0007,0,0.0222,0.0254,0.029,0.0314,0.036,0.0381,0.0424,0.0437,0.0456,0.0479,0.0445,0.0444,0.035,0.0286,0.0194,0.0089,0.0086,0.0005,-0.0016,0.0025,0.0029,-0.0002,-0.0001,-0.0009,-0.0009,-0.0009,-0.0008,0,0.0234,0.0259,0.0305,0.0351,0.037,0.0402,0.0458,0.0486,0.0499,0.0526,0.0527,0.0496,0.0419,0.0318,0.0191,0.0112,0.0005,-0.0035,0.0026,0.001,-0.0056,-0.0051,-0.011,-0.0111,-0.0111,-0.0112,-0.0112,0,0.0245,0.027,0.0327,0.0357,0.0381,0.0431,0.047,0.0504,0.0534,0.0555,0.0567,0.0517,0.0478,0.0306,0.0194,0.0024,-0.0006,-0.0066,-0.0072,-0.0052,-0.0067,-0.0062,-0.0056,-0.0113,-0.0113,-0.0113,-0.0113,0,0.0265,0.0281,0.0317,0.0376,0.0421,0.0473,0.0527,0.0551,0.0591,0.0601,0.0599,0.0522,0.0441,0.0315,0.0189,0.0062,-0.003,-0.0072,-0.0072,-0.0079,-0.0057,-0.007,-0.0064,-0.0115,-0.0115,-0.0115,-0.0115,0,0.0276,0.0297,0.0342,0.0392,0.0449,0.0498,0.0528,0.0567,0.0599,0.062,0.0619,0.0537,0.05,0.0334,0.0214,0.0097,0.0058,0.0003,-0.0002,-0.0001,0.0046,0.0091,0.0059,0,0,0,0,0,0.029,0.0312,0.0357,0.0411,0.0464,0.0496,0.0562,0.0587,0.0621,0.0623,0.0624,0.055,0.0395,0.0337,0.0218,0.0186,0.0026,0.0039,-0.0043,-0.0126,-0.0124,-0.0087,0,0,0,0,0,0,0.03,0.034,0.0354,0.0415,0.045,0.051,0.055,0.0575,0.0581,0.0601,0.0529,0.05,0.0357,0.046,0.021,0.0177,0.0102,-0.0026,-0.0029,-0.0127,-0.0125,-0.0124,-0.0085,0,0,0,0,0]}]]